Lid_Strength_Index
11 12 14 14 13 13 13 14 14 10 10 10 11 10 9 7 7 8 7 7 6 6 4 3 3 3 4 3 2 2 3 4 5 5 5 5 5 6 5 2 1 2 1 2
12 14 11 11 12 12 13 13 14 12 11 9 11 10 9 8 8 8 7 7 6 6 5 4 4 4 4 4 3 3 3 4 4 4 4 5 5 5 3 3 2 2 1 2
13 11 9 10 11 12 13 14 14 13 10 10 11 13 11 9 7 7 6 6 6 6 6 5 5 5 6 6 4 4 3 3 4 4 5 5 6 4 4 4 3 1 1 2
12 10 10 11 11 11 14 11 11 11 12 14 11 15 12 10 9 8 8 7 6 6 5 4 5 5 6 6 6 6 5 5 5 4 6 7 7 6 5 4 3 2 2 1
11 11 11 11 10 10 11 10 11 11 13 14 14 16 13 11 12 10 8 7 6 5 5 5 5 5 5 6 6 6 6 6 5 5 6 6 5 5 5 3 3 2 2 1
10 9 9 9 9 9 9 11 12 13 15 16 14 15 16 13 11 9 7 7 6 6 5 5 5 6 5 5 6 6 6 6 6 6 6 5 4 5 5 4 3 3 3 2
11 11 9 8 10 10 11 13 17 17 17 16 14 15 14 11 10 8 7 7 6 5 5 6 6 6 6 6 6 5 5 5 6 6 6 4 4 4 3 3 3 4 3 3
14 14 10 9 10 11 13 13 16 18 18 16 14 15 12 9 8 8 7 9 5 6 5 6 6 6 5 5 5 5 6 6 5 6 5 4 4 3 3 3 3 3 3 3
14 13 9 8 9 9 12 14 13 16 16 17 16 13 9 8 8 8 8 8 7 6 6 6 6 6 6 6 4 6 5 5 5 5 4 4 4 3 3 3 3 3 3 2
11 13 10 9 9 10 11 11 14 15 18 19 16 15 13 10 9 9 9 8 7 6 6 6 6 6 6 6 6 5 4 4 3 3 3 4 3 3 2 3 2 2 3 3
11 12 11 10 12 12 12 14 14 14 16 18 18 15 11 10 9 8 8 7 7 7 7 7 6 6 6 7 6 5 5 5 4 4 3 4 4 3 3 3 3 4 4 4
11 13 14 12 10 9 11 13 13 16 17 17 16 16 10 9 9 8 8 7 6 6 6 6 6 6 7 8 7 6 5 5 4 4 4 4 4 3 3 4 5 5 5 4
10 14 16 14 12 11 12 11 13 14 15 16 17 15 10 9 8 8 8 7 6 6 6 6 7 7 7 7 7 6 5 5 4 4 4 4 3 4 4 5 5 5 4 3
7 14 14 16 14 12 13 12 12 13 16 15 15 14 11 10 9 8 8 8 6 6 6 7 7 7 7 6 7 6 5 4 4 4 4 4 4 4 4 4 4 4 4 5
10 13 13 12 12 12 11 11 11 12 13 13 12 13 11 10 9 9 9 8 7 6 6 6 7 7 7 7 7 5 5 4 3 4 4 4 4 4 4 5 5 4 5 6
11 13 12 13 11 11 12 11 11 11 12 12 12 12 10 9 9 9 8 8 7 6 5 5 5 7 8 6 6 6 5 4 3 4 4 4 4 4 5 5 6 6 6 5
11 12 13 15 11 12 14 12 11 11 11 11 13 11 10 9 9 9 8 8 7 6 5 5 4 5 7 6 5 6 5 4 4 4 4 4 5 6 6 6 7 7 6 6
12 13 13 15 14 18 12 9 9 10 10 10 10 10 9 9 9 8 7 7 7 6 5 5 5 6 5 5 5 5 5 4 4 4 4 5 6 7 7 7 7 7 7 7
10 12 14 16 16 13 11 10 10 11 10 9 9 9 8 8 7 7 5 5 5 5 5 4 4 5 4 5 5 5 5 4 4 5 5 6 7 8 7 7 7 7 7 8
10 11 12 15 18 19 12 8 7 8 14 8 9 9 8 8 11 9 6 5 5 4 4 4 4 4 4 5 4 5 5 5 5 6 7 7 7 7 8 7 7 7 9 8
13 13 15 16 16 14 10 8 7 14 12 8 7 8 8 9 8 7 5 5 4 4 4 4 4 5 5 4 4 6 6 6 6 7 7 7 7 7 7 7 8 9 9 7
14 15 15 15 17 17 8 8 11 9 8 8 7 7 8 8 7 5 5 5 5 5 5 4 5 5 5 5 6 6 7 7 7 7 7 7 8 7 7 9 10 10 9 9
14 12 13 13 14 10 8 9 7 7 7 7 7 6 6 6 6 5 6 6 6 5 6 6 6 7 6 6 6 8 8 7 7 7 8 8 7 7 8 10 10 10 9 9
12 10 12 11 11 9 8 7 6 6 7 6 5 5 5 6 6 6 7 7 7 6 7 6 7 7 7 7 6 7 7 7 8 8 8 8 8 8 9 9 9 9 9 8
11 11 11 11 9 8 7 6 6 6 5 5 5 5 5 5 6 7 7 7 6 6 6 6 7 7 7 6 8 7 7 8 8 8 8 8 8 8 9 8 8 8 6 6
11 11 12 12 8 9 9 7 6 6 6 5 6 5 5 5 5 6 6 6 6 6 6 7 7 8 7 6 7 7 7 8 8 9 9 8 8 9 8 8 7 7 7 7